IRIDIUM 33 DEB, 35051

Orbit data source: Space-Track

IRIDIUM 33 DEB, 35051 is space debris in LEO originally from a launch on Sun, 14 Sep 1997 UTC launched from the Tyuratam Missile And Space Complex (TTMTR). The debris from Iridium 33, an American commercial communications satellite, has been tracked extensively since its accidental collision with the defunct Russian satellite Cosmos 2251 in 2009. This event, occurring at high speed in low Earth orbit (LEO), generated thousands of pieces of space debris, significantly increasing the risk of further collisions. The Iridium 33 debris cloud has impacted space traffic management and orbital debris mitigation strategies, making it a subject of ongoing study in space situational awareness.

Loading next visibility...
Identifier
35051, 1997-051NX
Orbit
LEO
Country
Flag of USUS
Related business
Manufacturer
Unknown
Mission
Spacecraft
Bus & Motor
Unknown
Mass
Unknown
Launch date (UTC)
1997-09-14 (29 years ago)
Launch vehicle
Unknown
Launch site
Tyuratam Missile And Space Complex (TTMTR)
Object type
Payload
Rocket body
Debris
Shape & HBR
Unknown shape, 0.1 m
Radar Cross Section
Small (<0.1 m²)

Expand to show TLE details & history
Last TLE update: 2 days ago

TLE from 2 days ago
0 IRIDIUM 33 DEB
1 35051U 97051NX  26171.08412249  .00001466  00000-0  38550-3 0  9994
2 35051  86.3228 286.2694 0009110 164.2164 195.9325 14.48479026897369
Epoch: 2026-06-20T02:01Z
TLE epoch observation values (Epoch: 2026-06-20T02:01:08.183Z)
Latitude
-0.00004°
Longitude
-12.31853°
Altitude
739.92 km
Speed
7.482 km/s
True Right ascension
19h 05m 04s
True Declination
0° 00' 00"
Sunlit
Object was in full shadow at epoch
Visualization orbit readout
Latitude
Unknown
Longitude
Unknown
Altitude
Unknown
Speed
Unknown
Apparent Right ascension
Unknown
Apparent Declination
Unknown
Sunlit
N/A
Visualization observer readout
Local Sidereal Time
23:21:01
Azimuth
Unknown
Elevation
Unknown
Doppler factor
Unknown
Orbital elements
Apogee altitude
734.04 km
Perigee altitude
721.093 km
Semi-major axis
7,105.703 km
Eccentricity
0.00091
Inclination
86.3228°
RAAN
286.2694°
Arg. of periapsis
164.2164°
True anomaly
195.90388°
Mean anomaly
195.9325°
Eccentric anomaly
195.91818°
Mean motion
3.62354 °/min
Orbital period
99.35 mins
BSTAR
0.0003855

Documentation

Showing up to 5 results
|